{"data":{"norad_id":47375,"intl_designator":"2021-005AC","name":"STARLINK-2094","alt_names":[],"object_type":"PAYLOAD","status":"ACTIVE","operator":null,"country":"US","launch_date":"2021-01-20","launch_site_code":"AFETR","launch_vehicle":null,"mission":null,"orbit_class":"UNKNOWN","rcs_meters":null,"size_class":null,"mass_kg":null,"dimensions":null,"purposes":["comms"],"wikipedia_slug":null,"has_3d_model":false,"image_url":null,"decayed_at":null,"tle_current":{"epoch":"2026-05-25T01:14:30.429312Z","epoch_age_seconds":67052,"freshness":"FRESH","line1":"1 47375U 21005AC  26145.05174108  .00002802  00000+0  10197-3 0  9990","line2":"2 47375  53.1615  67.3600 0001210  89.4166 270.6974 15.31713895294721","mean_motion":15.31713895,"eccentricity":0.000121,"inclination_deg":53.1615,"raan_deg":67.36,"arg_perigee_deg":89.4166,"mean_anomaly_deg":270.6974,"bstar":0.00010197,"rev_number":29472,"period_min":94.012335116931,"perigee_km":469.8698661622,"apogee_km":471.52728437141,"semimajor_km":6848.8355752668,"source":"CELESTRAK","updated_at":"2026-05-25T13:38:16.527378Z"}}}